| time (UTC) | temp F | wind direction | speed MPH | gust MPH | rain 1hr in | rain 24hr in | rain mn in | humidity % | barometer mb |
| 20260901134045 | 75 | 179 | 0.0 | 0.0 | 0.00 | 0.00 | 0.00 | 89 | 1002.3 |
| 20260901133558 | 75 | 179 | 0.0 | 0.0 | 0.00 | 0.00 | 0.00 | 90 | 1002.3 |
| 20260901133317 | 74 | 179 | 0.0 | 0.0 | 0.00 | 0.00 | 0.00 | 90 | 1002.3 |
| 20260901132549 | 73 | 179 | 0.0 | 0.0 | 0.00 | 0.00 | 0.00 | 90 | 1002.3 |
| 20260901132316 | 73 | 178 | 0.0 | 0.0 | 0.00 | 0.00 | 0.00 | 92 | 1002.3 |
| 20260901131544 | 73 | 178 | 0.0 | 0.0 | 0.00 | 0.00 | 0.00 | 92 | 1002.3 |
| 20260901131045 | 72 | 178 | 0.0 | 0.0 | 0.00 | 0.00 | 0.00 | 92 | 1002.3 |
| 20260901130544 | 72 | 175 | 0.0 | 0.0 | 0.00 | 0.00 | 0.00 | 93 | 1002.4 |
| 20260901130045 | 71 | 175 | 0.0 | 0.0 | 0.00 | 0.00 | 0.00 | 93 | 1002.3 |
| 20260901125545 | 71 | 166 | 0.0 | 0.0 | 0.00 | 0.00 | 0.00 | 94 | 1002.4 |
| 20260901125044 | 71 | 166 | 0.0 | 0.0 | 0.00 | 0.00 | 0.00 | 94 | 1002.4 |
| 20260901124554 | 70 | 118 | 0.0 | 0.0 | 0.00 | 0.00 | 0.00 | 95 | 1002.4 |
| 20260901124045 | 70 | 102 | 0.0 | 0.0 | 0.00 | 0.00 | 0.00 | 94 | 1002.3 |
| 20260901123544 | 70 | 102 | 0.0 | 0.0 | 0.00 | 0.00 | 0.00 | 94 | 1002.4 |
| 20260901123314 | 69 | 102 | 0.0 | 0.0 | 0.00 | 0.00 | 0.00 | 94 | 1002.4 |
| 20260901122815 | 69 | 102 | 0.0 | 0.0 | 0.00 | 0.00 | 0.00 | 94 | 1002.3 |
| 20260901122044 | 69 | 102 | 0.0 | 0.0 | 0.00 | 0.00 | 0.00 | 94 | 1002.2 |
| 20260901121544 | 69 | 102 | 0.0 | 0.0 | 0.00 | 0.00 | 0.00 | 93 | 1002.2 |
| 20260901121044 | 69 | 102 | 0.0 | 0.0 | 0.00 | 0.00 | 0.00 | 93 | 1002.2 |
| 20260901120543 | 69 | 102 | 0.0 | 0.0 | 0.00 | 0.00 | 0.00 | 93 | 1002.1 |
| 20260901120043 | 69 | 102 | 0.0 | 0.0 | 0.00 | 0.00 | 0.00 | 93 | 1002.1 |
| 20260901115542 | 69 | 134 | 0.0 | 0.0 | 0.00 | 0.00 | 0.00 | 93 | 1002.0 |
| 20260901115044 | 69 | 134 | 0.0 | 0.0 | 0.00 | 0.00 | 0.00 | 93 | 1002.0 |
| 20260901114543 | 69 | 134 | 0.0 | 0.0 | 0.00 | 0.00 | 0.00 | 93 | 1001.9 |
| 20260901114314 | 69 | 134 | 0.0 | 0.0 | 0.00 | 0.00 | 0.00 | 93 | 1001.8 |
| 20260901113542 | 69 | 134 | 0.0 | 0.0 | 0.00 | 0.00 | 0.00 | 93 | 1001.8 |
| 20260901113044 | 69 | 134 | 0.0 | 0.0 | 0.00 | 0.00 | 0.00 | 93 | 1001.7 |
| 20260901112542 | 69 | 134 | 0.0 | 0.0 | 0.00 | 0.00 | 0.00 | 93 | 1001.8 |
| 20260901112042 | 69 | 134 | 0.0 | 0.0 | 0.00 | 0.00 | 0.00 | 93 | 1001.8 |
| 20260901111542 | 69 | 134 | 0.0 | 0.0 | 0.00 | 0.00 | 0.00 | 93 | 1001.7 |
| 20260901111041 | 69 | 134 | 0.0 | 0.0 | 0.00 | 0.00 | 0.00 | 93 | 1001.6 |
| 20260901110542 | 69 | 134 | 0.0 | 0.0 | 0.00 | 0.00 | 0.00 | 93 | 1001.6 |
| 20260901110042 | 70 | 134 | 0.0 | 0.0 | 0.00 | 0.00 | 0.00 | 92 | 1001.5 |
| 20260901105542 | 70 | 134 | 0.0 | 0.0 | 0.00 | 0.00 | 0.00 | 92 | 1001.5 |
| 20260901105041 | 70 | 134 | 0.0 | 0.0 | 0.00 | 0.00 | 0.00 | 92 | 1001.5 |
| 20260901104040 | 70 | 134 | 0.0 | 0.0 | 0.00 | 0.00 | 0.00 | 92 | 1001.4 |
| 20260901103540 | 70 | 134 | 0.0 | 0.0 | 0.00 | 0.00 | 0.00 | 92 | 1001.5 |
| 20260901103041 | 70 | 134 | 0.0 | 0.0 | 0.00 | 0.00 | 0.00 | 92 | 1001.4 |
| 20260901102541 | 70 | 134 | 0.0 | 0.0 | 0.00 | 0.00 | 0.00 | 92 | 1001.4 |
| 20260901102041 | 70 | 134 | 0.0 | 0.0 | 0.00 | 0.00 | 0.00 | 92 | 1001.4 |
| 20260901101541 | 70 | 134 | 0.0 | 0.0 | 0.00 | 0.00 | 0.00 | 92 | 1001.4 |
| 20260901101041 | 70 | 134 | 0.0 | 0.0 | 0.00 | 0.00 | 0.00 | 92 | 1001.3 |
| 20260901100542 | 70 | 134 | 0.0 | 0.0 | 0.00 | 0.00 | 0.00 | 92 | 1001.2 |
| 20260901100312 | 70 | 134 | 0.0 | 0.0 | 0.00 | 0.00 | 0.00 | 92 | 1001.2 |
| 20260901095541 | 70 | 134 | 0.0 | 0.0 | 0.00 | 0.00 | 0.00 | 92 | 1001.2 |
| 20260901095041 | 70 | 134 | 0.0 | 0.0 | 0.00 | 0.00 | 0.00 | 92 | 1001.3 |
| 20260901094541 | 71 | 134 | 0.0 | 0.0 | 0.00 | 0.00 | 0.00 | 91 | 1001.2 |
| 20260901094040 | 71 | 134 | 0.0 | 0.0 | 0.00 | 0.00 | 0.00 | 91 | 1001.2 |
| 20260901093810 | 71 | 134 | 0.0 | 0.0 | 0.00 | 0.00 | 0.00 | 91 | 1001.1 |
| 20260901093040 | 71 | 134 | 0.0 | 0.0 | 0.00 | 0.00 | 0.00 | 91 | 1001.1 |
| 20260901092540 | 71 | 134 | 0.0 | 0.0 | 0.00 | 0.00 | 0.00 | 91 | 1001.1 |
| 20260901092039 | 71 | 134 | 0.0 | 0.0 | 0.00 | 0.00 | 0.00 | 91 | 1001.1 |
| 20260901091540 | 71 | 134 | 0.0 | 0.0 | 0.00 | 0.00 | 0.00 | 91 | 1001.0 |
| 20260901091309 | 71 | 134 | 0.0 | 0.0 | 0.00 | 0.00 | 0.00 | 91 | 1001.0 |
| 20260901090811 | 71 | 134 | 0.0 | 0.0 | 0.00 | 0.00 | 0.00 | 91 | 1000.9 |
| 20260901090038 | 71 | 134 | 0.0 | 0.0 | 0.00 | 0.00 | 0.00 | 91 | 1000.9 |
| 20260901085539 | 71 | 134 | 0.0 | 0.0 | 0.00 | 0.00 | 0.00 | 90 | 1000.9 |
| 20260901085041 | 71 | 134 | 0.0 | 0.0 | 0.00 | 0.00 | 0.00 | 90 | 1000.9 |
| 20260901084538 | 71 | 134 | 0.0 | 0.0 | 0.00 | 0.00 | 0.00 | 90 | 1000.8 |
| 20260901084039 | 71 | 134 | 0.0 | 0.0 | 0.00 | 0.00 | 0.00 | 90 | 1000.7 |
| 20260901083538 | 71 | 134 | 0.0 | 0.0 | 0.00 | 0.00 | 0.00 | 90 | 1000.6 |
| 20260901083039 | 71 | 134 | 0.0 | 0.0 | 0.00 | 0.00 | 0.00 | 90 | 1000.6 |
| 20260901082537 | 71 | 134 | 0.0 | 0.0 | 0.00 | 0.00 | 0.00 | 90 | 1000.6 |
| 20260901082038 | 71 | 134 | 0.0 | 0.0 | 0.00 | 0.00 | 0.00 | 90 | 1000.6 |
| 20260901081537 | 72 | 134 | 0.0 | 0.0 | 0.00 | 0.00 | 0.00 | 89 | 1000.6 |
| 20260901081037 | 72 | 134 | 0.0 | 0.0 | 0.00 | 0.00 | 0.00 | 89 | 1000.5 |
| 20260901080539 | 72 | 134 | 0.0 | 0.0 | 0.00 | 0.00 | 0.00 | 88 | 1000.5 |
| 20260901080038 | 72 | 134 | 0.0 | 0.0 | 0.00 | 0.00 | 0.00 | 88 | 1000.5 |
| 20260901075537 | 72 | 134 | 0.0 | 0.0 | 0.00 | 0.00 | 0.00 | 88 | 1000.4 |
| 20260901075307 | 72 | 134 | 0.0 | 0.0 | 0.00 | 0.00 | 0.00 | 88 | 1000.6 |
| 20260901074537 | 72 | 134 | 0.0 | 0.0 | 0.00 | 0.00 | 0.00 | 88 | 1000.4 |
| 20260901074035 | 72 | 134 | 0.0 | 0.0 | 0.00 | 0.00 | 0.00 | 88 | 1000.4 |
| 20260901073537 | 72 | 134 | 0.0 | 0.0 | 0.00 | 0.00 | 0.00 | 88 | 1000.3 |
| 20260901073036 | 72 | 134 | 0.0 | 0.0 | 0.00 | 0.00 | 0.00 | 88 | 1000.3 |
| 20260901072535 | 72 | 134 | 0.0 | 0.0 | 0.00 | 0.00 | 0.00 | 88 | 1000.2 |
| 20260901072309 | 73 | 134 | 0.0 | 0.0 | 0.00 | 0.00 | 0.00 | 88 | 1000.3 |
| 20260901071535 | 73 | 134 | 0.0 | 0.0 | 0.00 | 0.00 | 0.00 | 88 | 1000.3 |
| 20260901071036 | 73 | 134 | 0.0 | 0.0 | 0.00 | 0.00 | 0.00 | 88 | 1000.3 |
| 20260901070536 | 73 | 134 | 0.0 | 0.0 | 0.00 | 0.00 | 0.00 | 88 | 1000.4 |
| 20260901070036 | 73 | 134 | 0.0 | 0.0 | 0.00 | 0.00 | 0.00 | 87 | 1000.3 |
| 20260901065808 | 73 | 134 | 0.0 | 0.0 | 0.00 | 0.00 | 0.00 | 87 | 1000.2 |
| 20260901065036 | 73 | 134 | 0.0 | 0.0 | 0.00 | 0.00 | 0.00 | 87 | 1000.2 |
| 20260901064534 | 73 | 134 | 0.0 | 0.0 | 0.00 | 0.00 | 0.00 | 87 | 1000.3 |
| 20260901064034 | 73 | 134 | 0.0 | 0.0 | 0.00 | 0.00 | 0.00 | 86 | 1000.2 |
| 20260901063535 | 74 | 134 | 0.0 | 0.0 | 0.00 | 0.00 | 0.00 | 86 | 1000.3 |
| 20260901063035 | 74 | 134 | 0.0 | 0.0 | 0.00 | 0.00 | 0.00 | 86 | 1000.4 |
| 20260901062806 | 74 | 134 | 0.0 | 0.0 | 0.00 | 0.00 | 0.00 | 86 | 1000.4 |
| 20260901062034 | 74 | 134 | 0.0 | 0.0 | 0.00 | 0.00 | 0.00 | 86 | 1000.5 |
| 20260901061535 | 74 | 134 | 0.0 | 0.0 | 0.00 | 0.00 | 0.00 | 86 | 1000.6 |
| 20260901061033 | 74 | 134 | 0.0 | 0.0 | 0.00 | 0.00 | 0.00 | 85 | 1000.5 |
| 20260901060032 | 74 | 134 | 0.0 | 0.0 | 0.00 | 0.00 | 0.00 | 85 | 1000.5 |
| 20260901055533 | 74 | 134 | 0.0 | 0.0 | 0.00 | 0.00 | 0.00 | 85 | 1000.6 |
| 20260901055033 | 74 | 134 | 0.0 | 0.0 | 0.00 | 0.00 | 0.00 | 85 | 1000.6 |
| 20260901054533 | 74 | 134 | 0.0 | 0.0 | 0.00 | 0.00 | 0.00 | 85 | 1000.7 |
| 20260901054032 | 75 | 134 | 0.0 | 0.0 | 0.00 | 0.00 | 0.00 | 84 | 1000.6 |
| 20260901053802 | 75 | 134 | 0.0 | 0.0 | 0.00 | 0.00 | 0.00 | 85 | 1000.6 |
| 20260901053033 | 75 | 134 | 0.0 | 0.0 | 0.00 | 0.00 | 0.00 | 84 | 1000.7 |
| 20260901052531 | 75 | 134 | 0.0 | 0.0 | 0.00 | 0.00 | 0.00 | 84 | 1000.6 |
| 20260901052032 | 75 | 134 | 0.0 | 0.0 | 0.00 | 0.00 | 0.00 | 83 | 1000.6 |
| 20260901051531 | 75 | 134 | 0.0 | 0.0 | 0.00 | 0.00 | 0.00 | 83 | 1000.6 |
| 20260901051032 | 75 | 134 | 0.0 | 0.0 | 0.00 | 0.00 | 0.00 | 83 | 1000.6 |
| 20260901050532 | 75 | 134 | 0.0 | 0.0 | 0.00 | 0.00 | 0.00 | 83 | 1000.6 |
| 20260901050031 | 76 | 134 | 0.0 | 0.0 | 0.00 | 0.00 | 0.00 | 83 | 1000.6 |
| 20260901045532 | 76 | 134 | 0.0 | 0.0 | 0.00 | 0.00 | 0.00 | 82 | 1000.6 |
| 20260901045033 | 76 | 134 | 0.0 | 0.0 | 0.00 | 0.00 | 0.00 | 82 | 1000.6 |
| 20260901044532 | 76 | 134 | 0.0 | 0.0 | 0.00 | 0.00 | 0.00 | 82 | 1000.7 |
| 20260901044030 | 76 | 134 | 0.0 | 0.0 | 0.00 | 0.00 | 0.00 | 82 | 1000.7 |
| 20260901043801 | 76 | 134 | 0.0 | 0.0 | 0.00 | 0.00 | 0.00 | 82 | 1000.7 |
| 20260901043031 | 76 | 134 | 0.0 | 0.0 | 0.00 | 0.00 | 0.00 | 81 | 1000.7 |
| 20260901042531 | 77 | 134 | 0.0 | 0.0 | 0.00 | 0.00 | 0.00 | 81 | 1000.7 |
| 20260901042301 | 77 | 134 | 0.0 | 0.0 | 0.00 | 0.00 | 0.00 | 80 | 1000.7 |
| 20260901041531 | 77 | 134 | 0.0 | 0.0 | 0.00 | 0.00 | 0.00 | 80 | 1000.7 |
| 20260901041302 | 77 | 134 | 0.0 | 0.0 | 0.00 | 0.00 | 0.00 | 80 | 1000.7 |
| 20260901040529 | 77 | 134 | 0.0 | 0.0 | 0.00 | 0.00 | 0.00 | 80 | 1000.7 |
| 20260901040030 | 78 | 134 | 0.0 | 0.0 | 0.00 | 0.00 | 0.00 | 79 | 1000.7 |
| 20260901035305 | 78 | 134 | 0.0 | 0.0 | 0.00 | 0.00 | 0.00 | 78 | 1000.6 |
| 20260901034530 | 78 | 134 | 0.0 | 0.0 | 0.00 | 0.00 | 0.00 | 78 | 1000.6 |
| 20260901034030 | 78 | 134 | 0.0 | 0.0 | 0.00 | 0.00 | 0.00 | 77 | 1000.7 |
| 20260901033029 | 79 | 134 | 0.0 | 0.0 | 0.00 | 0.00 | 0.00 | 77 | 1000.6 |
| 20260901032759 | 79 | 134 | 0.0 | 0.0 | 0.00 | 0.00 | 0.00 | 77 | 1000.5 |
| 20260901032028 | 79 | 134 | 0.0 | 0.0 | 0.00 | 0.00 | 0.00 | 76 | 1000.5 |
| 20260901031530 | 80 | 134 | 0.0 | 0.0 | 0.00 | 0.00 | 0.00 | 76 | 1000.4 |
| 20260901031029 | 80 | 134 | 0.0 | 0.0 | 0.00 | 0.00 | 0.00 | 76 | 1000.4 |
| 20260901030528 | 80 | 134 | 0.0 | 0.0 | 0.00 | 0.00 | 0.00 | 76 | 1000.4 |
| 20260901025527 | 80 | 134 | 0.0 | 0.0 | 0.00 | 0.00 | 0.00 | 75 | 1000.3 |
| 20260901025029 | 81 | 134 | 0.0 | 0.0 | 0.00 | 0.00 | 0.00 | 74 | 1000.3 |
| 20260901024528 | 81 | 134 | 0.0 | 0.0 | 0.00 | 0.00 | 0.00 | 73 | 1000.3 |
| 20260901024027 | 81 | 134 | 0.0 | 0.0 | 0.00 | 0.00 | 0.00 | 73 | 1000.3 |
| 20260901023527 | 82 | 134 | 0.0 | 0.0 | 0.00 | 0.00 | 0.00 | 73 | 1000.2 |
| 20260901023028 | 82 | 134 | 0.0 | 0.0 | 0.00 | 0.00 | 0.00 | 72 | 1000.2 |
| 20260901022526 | 82 | 134 | 0.0 | 0.0 | 0.00 | 0.00 | 0.00 | 72 | 1000.1 |
| 20260901022027 | 83 | 134 | 0.0 | 0.0 | 0.00 | 0.00 | 0.00 | 71 | 1000.1 |
| 20260901021528 | 83 | 134 | 0.0 | 0.0 | 0.00 | 0.00 | 0.00 | 71 | 1000.1 |
| 20260901020527 | 84 | 134 | 0.0 | 0.0 | 0.00 | 0.00 | 0.00 | 69 | 999.9 |
| 20260901020027 | 85 | 134 | 0.0 | 0.0 | 0.00 | 0.00 | 0.00 | 68 | 999.8 |
| 20260901015526 | 85 | 134 | 0.0 | 0.0 | 0.00 | 0.00 | 0.00 | 67 | 999.7 |
| 20260901015027 | 86 | 134 | 0.0 | 0.0 | 0.00 | 0.00 | 0.00 | 66 | 999.6 |
| 20260901014527 | 87 | 134 | 0.0 | 0.0 | 0.00 | 0.00 | 0.00 | 64 | 999.6 |
| 20260901014026 | 87 | 134 | 0.0 | 0.0 | 0.00 | 0.00 | 0.00 | 64 | 999.5 |
| 20260901013527 | 88 | 179 | 0.0 | 0.0 | 0.00 | 0.00 | 0.00 | 62 | 999.5 |
| 20260901013026 | 89 | 180 | 0.0 | 0.0 | 0.00 | 0.00 | 0.00 | 61 | 999.5 |
| 20260901012526 | 89 | 180 | 0.0 | 1.0 | 0.00 | 0.00 | 0.00 | 60 | 999.4 |
| 20260901012257 | 90 | 180 | 0.0 | 1.0 | 0.00 | 0.00 | 0.00 | 58 | 999.3 |
| 20260901011526 | 91 | 180 | 0.0 | 1.0 | 0.00 | 0.00 | 0.00 | 56 | 999.2 |
| 20260901011026 | 91 | 180 | 0.0 | 1.0 | 0.00 | 0.00 | 0.00 | 55 | 999.1 |
| 20260901010526 | 91 | 180 | 0.0 | 4.0 | 0.00 | 0.00 | 0.00 | 55 | 999.1 |
| 20260901010257 | 91 | 180 | 0.0 | 4.0 | 0.00 | 0.00 | 0.00 | 54 | 998.9 |
| 20260901005526 | 92 | 241 | 1.0 | 5.0 | 0.00 | 0.00 | 0.00 | 54 | 999.0 |
| 20260901005025 | 92 | 219 | 3.0 | 5.0 | 0.00 | 0.00 | 0.00 | 54 | 999.0 |
| 20260901004524 | 92 | 217 | 2.0 | 5.0 | 0.00 | 0.00 | 0.00 | 53 | 998.8 |
| 20260901004025 | 92 | 228 | 2.0 | 5.0 | 0.00 | 0.00 | 0.00 | 53 | 998.8 |
| 20260901003524 | 93 | 247 | 2.0 | 5.0 | 0.00 | 0.00 | 0.00 | 53 | 998.7 |
| 20260901003025 | 93 | 224 | 2.0 | 6.0 | 0.00 | 0.00 | 0.00 | 53 | 998.6 |
| 20260901002756 | 93 | 251 | 4.0 | 9.0 | 0.00 | 0.00 | 0.00 | 52 | 998.6 |
| 20260901002025 | 94 | 216 | 3.0 | 9.0 | 0.00 | 0.00 | 0.00 | 52 | 998.6 |
| 20260901001524 | 94 | 235 | 6.0 | 10.0 | 0.00 | 0.00 | 0.00 | 51 | 998.6 |
| 20260901001023 | 94 | 237 | 5.0 | 10.0 | 0.00 | 0.00 | 0.00 | 51 | 998.5 |
| 20260901000755 | 94 | 233 | 5.0 | 6.0 | 0.00 | 0.00 | 0.00 | 51 | 998.5 |
| 20260901000025 | 95 | 250 | 4.0 | 6.0 | 0.00 | 0.00 | 0.00 | 51 | 998.5 |
| 20260831235755 | 95 | 238 | 4.0 | 9.0 | 0.00 | 0.00 | 0.00 | 50 | 998.5 |
| 20260831235023 | 95 | 223 | 6.0 | 9.0 | 0.00 | 0.00 | 0.00 | 50 | 998.4 |
| 20260831234524 | 95 | 276 | 5.0 | 9.0 | 0.00 | 0.00 | 0.00 | 49 | 998.4 |
| 20260831234024 | 96 | 252 | 5.0 | 11.0 | 0.00 | 0.00 | 0.00 | 49 | 998.5 |
| 20260831233523 | 96 | 213 | 4.0 | 11.0 | 0.00 | 0.00 | 0.00 | 49 | 998.4 |
| 20260831233254 | 96 | 204 | 7.0 | 11.0 | 0.00 | 0.00 | 0.00 | 48 | 998.3 |
| 20260831232522 | 96 | 254 | 6.0 | 12.0 | 0.00 | 0.00 | 0.00 | 48 | 998.3 |
| 20260831232254 | 96 | 244 | 8.0 | 12.0 | 0.00 | 0.00 | 0.00 | 47 | 998.3 |
| 20260831231524 | 97 | 241 | 5.0 | 12.0 | 0.00 | 0.00 | 0.00 | 46 | 998.3 |
| 20260831231022 | 97 | 221 | 6.0 | 12.0 | 0.00 | 0.00 | 0.00 | 46 | 998.4 |
| 20260831230522 | 97 | 252 | 6.0 | 11.0 | 0.00 | 0.00 | 0.00 | 45 | 998.4 |
| 20260831230254 | 98 | 244 | 6.0 | 11.0 | 0.00 | 0.00 | 0.00 | 45 | 998.4 |
| 20260831225524 | 98 | 227 | 3.0 | 10.0 | 0.00 | 0.00 | 0.00 | 44 | 998.4 |
| 20260831225253 | 98 | 259 | 6.0 | 11.0 | 0.00 | 0.00 | 0.00 | 44 | 998.4 |
| 20260831224521 | 98 | 259 | 6.0 | 11.0 | 0.00 | 0.00 | 0.00 | 42 | 998.3 |
| 20260831224023 | 98 | 259 | 3.0 | 5.0 | 0.00 | 0.00 | 0.00 | 41 | 998.3 |
| 20260831223522 | 97 | 200 | 3.0 | 5.0 | 0.00 | 0.00 | 0.00 | 44 | 998.4 |
| 20260831223022 | 97 | 200 | 3.0 | 6.0 | 0.00 | 0.00 | 0.00 | 44 | 998.4 |
| 20260831222521 | 97 | 245 | 5.0 | 7.0 | 0.00 | 0.00 | 0.00 | 43 | 998.5 |
| 20260831222022 | 98 | 244 | 5.0 | 7.0 | 0.00 | 0.00 | 0.00 | 42 | 998.4 |
| 20260831221522 | 98 | 220 | 4.0 | 6.0 | 0.00 | 0.00 | 0.00 | 42 | 998.5 |
| 20260831221021 | 98 | 214 | 4.0 | 6.0 | 0.00 | 0.00 | 0.00 | 40 | 998.4 |
| 20260831220752 | 98 | 213 | 4.0 | 6.0 | 0.00 | 0.00 | 0.00 | 39 | 998.4 |
| 20260831220021 | 98 | 251 | 2.0 | 4.0 | 0.00 | 0.00 | 0.00 | 39 | 998.5 |
| 20260831215521 | 98 | 255 | 3.0 | 5.0 | 0.00 | 0.00 | 0.00 | 39 | 998.5 |
| 20260831215021 | 98 | 251 | 2.0 | 5.0 | 0.00 | 0.00 | 0.00 | 39 | 998.4 |
| 20260831214521 | 98 | 258 | 4.0 | 6.0 | 0.00 | 0.00 | 0.00 | 39 | 998.5 |
| 20260831214252 | 98 | 254 | 3.0 | 7.0 | 0.00 | 0.00 | 0.00 | 39 | 998.5 |
| 20260831213521 | 98 | 244 | 4.0 | 7.0 | 0.00 | 0.00 | 0.00 | 40 | 998.5 |
| 20260831213021 | 98 | 247 | 4.0 | 7.0 | 0.00 | 0.00 | 0.00 | 40 | 998.6 |
| 20260831212752 | 98 | 250 | 5.0 | 7.0 | 0.00 | 0.00 | 0.00 | 40 | 998.6 |
| 20260831212251 | 99 | 265 | 2.0 | 9.0 | 0.00 | 0.00 | 0.00 | 39 | 998.6 |
| 20260831211519 | 99 | 254 | 7.0 | 9.0 | 0.00 | 0.00 | 0.00 | 39 | 998.6 |
| 20260831211020 | 99 | 251 | 5.0 | 7.0 | 0.00 | 0.00 | 0.00 | 39 | 998.7 |
| 20260831210520 | 99 | 245 | 4.0 | 6.0 | 0.00 | 0.00 | 0.00 | 39 | 998.7 |
| 20260831210019 | 99 | 162 | 1.0 | 7.0 | 0.00 | 0.00 | 0.00 | 39 | 998.9 |
| 20260831205519 | 99 | 230 | 3.0 | 7.0 | 0.00 | 0.00 | 0.00 | 40 | 998.9 |
| 20260831205250 | 99 | 216 | 5.0 | 7.0 | 0.00 | 0.00 | 0.00 | 40 | 998.9 |
| 20260831204521 | 99 | 186 | 3.0 | 4.0 | 0.00 | 0.00 | 0.00 | 40 | 998.9 |
| 20260831204019 | 99 | 186 | 2.0 | 6.0 | 0.00 | 0.00 | 0.00 | 40 | 999.0 |
| 20260831203520 | 99 | 197 | 1.0 | 9.0 | 0.00 | 0.00 | 0.00 | 40 | 999.1 |
| 20260831203020 | 99 | 188 | 5.0 | 9.0 | 0.00 | 0.00 | 0.00 | 40 | 999.0 |
| 20260831202519 | 99 | 200 | 4.0 | 9.0 | 0.00 | 0.00 | 0.00 | 41 | 999.0 |
| 20260831202018 | 99 | 180 | 5.0 | 9.0 | 0.00 | 0.00 | 0.00 | 41 | 999.2 |
| 20260831201519 | 99 | 210 | 5.0 | 6.0 | 0.00 | 0.00 | 0.00 | 41 | 999.3 |
| 20260831201018 | 99 | 216 | 4.0 | 6.0 | 0.00 | 0.00 | 0.00 | 41 | 999.3 |
| 20260831200519 | 100 | 193 | 3.0 | 5.0 | 0.00 | 0.00 | 0.00 | 40 | 999.4 |
| 20260831200019 | 100 | 107 | 2.0 | 5.0 | 0.00 | 0.00 | 0.00 | 40 | 999.4 |
| 20260831195517 | 100 | 82 | 3.0 | 6.0 | 0.00 | 0.00 | 0.00 | 40 | 999.4 |
| 20260831195018 | 99 | 196 | 3.0 | 10.0 | 0.00 | 0.00 | 0.00 | 42 | 999.6 |
| 20260831194518 | 99 | 255 | 1.0 | 10.0 | 0.00 | 0.00 | 0.00 | 41 | 999.5 |
| 20260831194020 | 99 | 257 | 4.0 | 10.0 | 0.00 | 0.00 | 0.00 | 41 | 999.7 |
| 20260831193519 | 99 | 261 | 6.0 | 13.0 | 0.00 | 0.00 | 0.00 | 41 | 999.7 |
| 20260831193018 | 99 | 243 | 7.0 | 13.0 | 0.00 | 0.00 | 0.00 | 42 | 999.8 |
| 20260831192518 | 99 | 6 | 1.0 | 5.0 | 0.00 | 0.00 | 0.00 | 42 | 999.7 |
| 20260831192017 | 98 | 279 | 3.0 | 10.0 | 0.00 | 0.00 | 0.00 | 43 | 999.7 |
| 20260831191518 | 98 | 262 | 3.0 | 12.0 | 0.00 | 0.00 | 0.00 | 43 | 999.9 |
| 20260831191019 | 98 | 212 | 4.0 | 12.0 | 0.00 | 0.00 | 0.00 | 43 | 999.9 |
| 20260831190518 | 98 | 274 | 4.0 | 12.0 | 0.00 | 0.00 | 0.00 | 43 | 1000.0 |
| 20260831190247 | 98 | 258 | 4.0 | 14.0 | 0.00 | 0.00 | 0.00 | 43 | 1000.0 |
| 20260831185749 | 98 | 241 | 5.0 | 14.0 | 0.00 | 0.00 | 0.00 | 43 | 1000.0 |
| 20260831185018 | 98 | 259 | 6.0 | 10.0 | 0.00 | 0.00 | 0.00 | 43 | 1000.1 |
| 20260831184516 | 98 | 179 | 0.0 | 4.0 | 0.00 | 0.00 | 0.00 | 44 | 1000.2 |
| 20260831184015 | 97 | 104 | 1.0 | 11.0 | 0.00 | 0.00 | 0.00 | 44 | 1000.3 |
| 20260831183516 | 97 | 259 | 2.0 | 11.0 | 0.00 | 0.00 | 0.00 | 44 | 1000.4 |
| 20260831183017 | 97 | 269 | 5.0 | 9.0 | 0.00 | 0.00 | 0.00 | 45 | 1000.3 |
| 20260831182746 | 97 | 250 | 2.0 | 11.0 | 0.00 | 0.00 | 0.00 | 45 | 1000.3 |
| 20260831181517 | 96 | 248 | 7.0 | 11.0 | 0.00 | 0.00 | 0.00 | 46 | 1000.5 |
| 20260831181247 | 96 | 202 | 7.0 | 11.0 | 0.00 | 0.00 | 0.00 | 45 | 1000.4 |
| 20260831180516 | 96 | 254 | 5.0 | 10.0 | 0.00 | 0.00 | 0.00 | 44 | 1000.6 |
| 20260831180016 | 96 | 207 | 6.0 | 10.0 | 0.00 | 0.00 | 0.00 | 44 | 1000.6 |
| 20260831175529 | 97 | 206 | 4.0 | 7.0 | 0.00 | 0.00 | 0.00 | 44 | 1000.7 |
| 20260831175016 | 97 | 316 | 4.0 | 14.0 | 0.00 | 0.00 | 0.00 | 45 | 1000.7 |
| 20260831174515 | 96 | 314 | 2.0 | 14.0 | 0.00 | 0.00 | 0.00 | 48 | 1000.8 |
| 20260831174015 | 95 | 243 | 4.0 | 12.0 | 0.00 | 0.00 | 0.00 | 46 | 1000.8 |
| 20260831173515 | 95 | 196 | 7.0 | 12.0 | 0.00 | 0.00 | 0.00 | 48 | 1000.9 |
| 20260831173015 | 95 | 265 | 4.0 | 10.0 | 0.00 | 0.00 | 0.00 | 48 | 1001.1 |
| 20260831172514 | 95 | 247 | 6.0 | 11.0 | 0.00 | 0.00 | 0.00 | 49 | 1001.0 |
| 20260831171515 | 95 | 259 | 4.0 | 4.0 | 0.00 | 0.00 | 0.00 | 51 | 1001.1 |
| 20260831171015 | 0 | 0.0 | 0.0 | 0.00 | 0.00 | 0.00 | 1001.1 | ||
| 20260831170514 | 0 | 0.0 | 0.0 | 0.00 | 0.00 | 0.00 | 1001.3 | ||
| 20260831170013 | 0 | 0.0 | 0.0 | 0.00 | 0.00 | 0.00 | 1001.4 | ||
| 20260831165512 | 0 | 255 | 8.0 | 9.0 | 0.00 | 0.00 | 0.00 | 1001.5 | |
| 20260831165011 | 94 | 255 | 8.0 | 13.0 | 0.00 | 0.00 | 0.00 | 51 | 1001.5 |
| 20260831164512 | 94 | 254 | 8.0 | 13.0 | 0.00 | 0.00 | 0.00 | 51 | 1001.5 |
| 20260831164009 | 94 | 264 | 4.0 | 9.0 | 0.00 | 0.00 | 0.00 | 52 | 1001.7 |
| 20260831163510 | 93 | 278 | 3.0 | 11.0 | 0.00 | 0.00 | 0.00 | 53 | 1001.6 |
| 20260831163010 | 93 | 272 | 7.0 | 11.0 | 0.00 | 0.00 | 0.00 | 53 | 1001.7 |
| 20260831162509 | 93 | 265 | 2.0 | 4.0 | 0.00 | 0.00 | 0.00 | 53 | 1001.7 |
| 20260831162242 | 0 | 0.0 | 0.0 | 0.00 | 0.00 | 0.00 | 1001.7 | ||
| 20260831161509 | 0 | 0.0 | 0.0 | 0.00 | 0.00 | 0.00 | 1001.7 | ||
| 20260831161008 | 0 | 0.0 | 0.0 | 0.00 | 0.00 | 0.00 | 1001.7 | ||
| 20260831160006 | 93 | 274 | 3.0 | 12.0 | 0.00 | 0.00 | 0.00 | 53 | 1001.8 |
| 20260831155505 | 92 | 264 | 5.0 | 14.0 | 0.00 | 0.00 | 0.00 | 54 | 1001.9 |
| 20260831155005 | 92 | 275 | 7.0 | 14.0 | 0.00 | 0.00 | 0.00 | 53 | 1001.7 |
| 20260831154504 | 92 | 250 | 4.0 | 10.0 | 0.00 | 0.00 | 0.00 | 55 | 1001.7 |
| 20260831154005 | 91 | 224 | 4.0 | 10.0 | 0.00 | 0.00 | 0.00 | 56 | 1001.7 |
| 20260831153505 | 90 | 250 | 4.0 | 7.0 | 0.00 | 0.00 | 0.00 | 59 | 1001.7 |
| 20260831153004 | 89 | 200 | 4.0 | 6.0 | 0.00 | 0.00 | 0.00 | 60 | 1001.8 |
| 20260831152505 | 88 | 245 | 1.0 | 5.0 | 0.00 | 0.00 | 0.00 | 62 | 1001.8 |
| 20260831151505 | 86 | 234 | 2.0 | 3.0 | 0.00 | 0.00 | 0.00 | 65 | 1001.7 |
| 20260831151005 | 0 | 0.0 | 0.0 | 0.00 | 0.00 | 0.00 | 1001.8 | ||
| 20260831150503 | 0 | 0.0 | 0.0 | 0.00 | 0.00 | 0.00 | 1001.8 | ||
| 20260831150002 | 0 | 0.0 | 0.0 | 0.00 | 0.00 | 0.00 | 1001.8 | ||
| 20260831145501 | 0 | 0.0 | 0.0 | 0.00 | 0.00 | 0.00 | 1001.8 | ||
| 20260831145000 | 0 | 0.0 | 0.0 | 0.00 | 0.00 | 0.00 | 1001.8 | ||
| 20260831144458 | 0 | 0.0 | 0.0 | 0.00 | 0.00 | 0.00 | 1001.8 | ||
| 20260831143958 | 0 | 0.0 | 0.0 | 0.00 | 0.00 | 0.00 | 1001.9 | ||
| 20260831143456 | 0 | 0.0 | 0.0 | 0.00 | 0.00 | 0.00 | 1001.9 | ||
| 20260831142956 | 0 | 0.0 | 0.0 | 0.00 | 0.00 | 0.00 | 1001.8 | ||
| 20260831142454 | 0 | 0.0 | 0.0 | 0.00 | 0.00 | 0.00 | 1001.9 | ||
| 20260831141953 | 75 | 188 | 1.0 | 3.0 | 0.00 | 0.00 | 0.00 | 79 | 1001.9 |
| 20260831141722 | 75 | 188 | 1.0 | 3.0 | 0.00 | 0.00 | 0.00 | 79 | 1002.0 |
| 20260831140950 | 75 | 188 | 1.0 | 2.0 | 0.00 | 0.00 | 0.00 | 79 | 1001.9 |
| 20260831140451 | 74 | 188 | 1.0 | 3.0 | 0.00 | 0.00 | 0.00 | 81 | 1001.9 |
| 20260831135951 | 73 | 186 | 2.0 | 3.0 | 0.00 | 0.00 | 0.00 | 82 | 1001.9 |
| 20260831135722 | 72 | 186 | 0.0 | 0.0 | 0.00 | 0.00 | 0.00 | 83 | 1001.9 |
| 20260831134951 | 72 | 186 | 0.0 | 0.0 | 0.00 | 0.00 | 0.00 | 84 | 1001.9 |